This is the latest recevied weather packets stored in our database for station/object KC5TIL-3. If no packets are shown the sender has not sent any weather packets the latest 10 day(s).
| Time | Temp. | Humidity | Pressure | Rain* | Wind** | Luminosity | Snow |
|---|---|---|---|---|---|---|---|
| 1787860792 | 36.67° C | 15% | 1011.8 hPa | 0 mm | 2.68 m/s, 331° | - | - |
| 1787860491 | 36.11° C | 15% | 1011.8 hPa | 0 mm | 2.24 m/s, 94° | - | - |
| 1787860192 | 36.11° C | 16% | 1011.8 hPa | 0 mm | 2.68 m/s, 351° | - | - |
| 1787859894 | 35.56° C | 16% | 1011.8 hPa | 0 mm | 2.68 m/s, 325° | - | - |
| 1787859593 | 35.56° C | 16% | 1011.8 hPa | 0 mm | 2.68 m/s, 295° | - | - |
| 1787859294 | 35° C | 17% | 1011.8 hPa | 0 mm | 3.13 m/s, 356° | - | - |
| 1787858996 | 35.56° C | 16% | 1012.8 hPa | 0 mm | 1.79 m/s, 316° | - | - |
| 1787858690 | 35.56° C | 16% | 1012.8 hPa | 0 mm | 4.02 m/s, 329° | - | - |
| 1787858392 | 35.56° C | 16% | 1012.8 hPa | 0 mm | 3.13 m/s, 344° | - | - |
| 1787858094 | 35.56° C | 16% | 1011.8 hPa | 0 mm | 1.79 m/s, 33° | - | - |
| 1787857788 | 35° C | 17% | 1011.8 hPa | 0 mm | 3.13 m/s, 9° | - | - |
| 1787857489 | 36.11° C | 16% | 1011.8 hPa | 0 mm | 2.68 m/s, 6° | - | - |
| 1787857187 | 35.56° C | 16% | 1012.8 hPa | 0 mm | 2.68 m/s, 4° | - | - |
| 1787856885 | 35.56° C | 16% | 1012.8 hPa | 0 mm | 3.58 m/s, 64° | - | - |
| 1787856587 | 36.11° C | 16% | 1012.8 hPa | 0 mm | 2.68 m/s, 45° | - | - |
| 1787856288 | 36.67° C | 16% | 1012.8 hPa | 0 mm | 3.58 m/s, 13° | - | - |
| 1787855987 | 36.11° C | 16% | 1012.8 hPa | 0 mm | 3.13 m/s, 7° | - | - |
| 1787855689 | 35° C | 17% | 1012.8 hPa | 0 mm | 3.13 m/s, 21° | - | - |
| 1787855390 | 36.11° C | 16% | 1012.8 hPa | 0 mm | 2.24 m/s, 305° | - | - |
| 1787855084 | 35° C | 17% | 1012.8 hPa | 0 mm | 3.58 m/s, 22° | - | - |
| 1787854786 | 35.56° C | 16% | 1012.8 hPa | 0 mm | 2.68 m/s, 328° | - | - |
| 1787854488 | 35.56° C | 16% | 1012.8 hPa | 0 mm | 2.24 m/s, 1° | - | - |
| 1787854182 | 35.56° C | 16% | 1012.8 hPa | 0 mm | 3.13 m/s, 338° | - | - |
| 1787853883 | 35° C | 17% | 1012.8 hPa | 0 mm | 4.02 m/s, 26° | - | - |
| 1787853580 | 35° C | 17% | 1012.8 hPa | 0 mm | 4.02 m/s, 329° | - | - |
* Rain latest hour (hover to see other rain measurements)
** Current wind speed in m/s (hover to see current wind gust speed)